Airfield :
LOGIN :

Register | Disclaimer

   EN    FR    IT 

 










Legend :    VFR   Marginal VFR   IFR   Intensive IFR   Very Intensive IFR
Visi :
Ceiling :
>= 8 km
>= 3000ft
5 to 8 km
1000 to 3000 ft
1500m to 5 km
500 to 1000 ft
800 to 1500m
200 to 500 ft
< 800m
< 200 ft
Symbols :   Thunderstorms  Fog  Heavy snow  Heavy precipitations  Wind > 20 kt
SIGMETs :     Misc.  Thunderstorms  Icing  Turbulence  Mountain Waves  Volcanic Ashes






- Airport Elevation : 0 ft


ETEB - Ansbach Army Heliport

CURRENT METAR :
  • 180441Z AUTO 36004KT 9999 SCT021 BKN032 02/02 A3009 RMK AO2 SLP223 $

EXPIRED METARs :
  • 180411Z AUTO 35003KT 9999 FEW019 BKN025 02/02 A3009 RMK AO2 BKN V SCT SLP223 $
  • 180256Z AUTO 35004KT 9999 OVC020 02/02 A3009 RMK AO2 SLP220 T00240024 57009 $
  • 180156Z AUTO 00000KT 9999 OVC019 03/03 A3010 RMK AO2 SLP224 T00250025 $

Expired Forecast.



MET'MAP, your aeronautical weather chart ! - Copyright ORBIFLY December 2007 - Disclaimer

ORBIFLY MET'MAP TEAM :

Programming & Development : Alexandra Zaïnal
Concept & original design : Baudouin d'Aumeries
Assistance for programming : Marc-Olivier Méhu
Technical & hardware support : Manuel Goepfert

Contact : metmap@orbifly.com




SOURCES & CREDITS :

   NOAA